BAW12J EGKK-KTPA

Flight info

Callsign BAW12J
Flight time N/A
Altitude 36000
Route NOVMA L620 SAM N19 ADKIK DCT MOPAT DCT ERTER DCT LILNO DCT LIMRI/M082F370 DCT 53N020W 53N030W 53N040W 52N050W DCT TUDEP/N0481F380 N526A TOPPS DCT KAYCC/N0473F400 DCT KYLOH DCT NELIE Q75 TEUFL DCT BAAMF DADES2
Aircraft B772/H-SDE2E3FGHIJ5LORVWXY/LB1D1

Departure

Time 2026-05-04 21:04
Airport London Gatwick Airport (EGKK)

Arrival

Time N/A
Airport Tampa International Airport (KTPA)
Time Latitude Longitude Altitude Speed Heading
2026-05-04 21:04 51.20386 -0.27721 7626 ft 280 kts 260°
2026-05-04 21:04 51.20026 -0.30756 8195 ft 282 kts 260°
2026-05-04 21:04 51.19661 -0.33832 8721 ft 286 kts 260°
2026-05-04 21:04 51.19290 -0.36947 9263 ft 287 kts 260°
2026-05-04 21:05 51.18917 -0.40067 9772 ft 289 kts 259°
2026-05-04 21:05 51.18533 -0.43268 10205 ft 294 kts 259°
2026-05-04 21:05 51.18140 -0.46549 10341 ft 310 kts 260°
2026-05-04 21:05 51.17724 -0.50000 10492 ft 327 kts 260°
2026-05-04 21:06 51.17115 -0.53604 10654 ft 342 kts 250°
2026-05-04 21:06 51.16192 -0.57213 10841 ft 358 kts 248°
2026-05-04 21:06 51.15218 -0.60898 11093 ft 371 kts 248°
2026-05-04 21:06 51.14290 -0.64407 11551 ft 377 kts 248°
2026-05-04 21:07 51.13285 -0.68205 12134 ft 380 kts 247°
2026-05-04 21:07 51.12253 -0.72106 12759 ft 384 kts 247°
2026-05-04 21:07 51.11205 -0.76063 13322 ft 389 kts 246°
2026-05-04 21:07 51.10144 -0.80059 13955 ft 392 kts 246°
2026-05-04 21:08 51.09080 -0.84066 14615 ft 396 kts 246°
2026-05-04 21:08 51.07991 -0.88157 15320 ft 399 kts 246°
2026-05-04 21:08 51.06903 -0.92239 15945 ft 403 kts 246°
2026-05-04 21:08 51.05798 -0.96377 16597 ft 406 kts 246°
2026-05-04 21:09 51.04695 -1.00501 17219 ft 410 kts 246°
2026-05-04 21:09 51.03573 -1.04689 17860 ft 414 kts 246°
2026-05-04 21:09 51.02445 -1.08892 18464 ft 418 kts 246°
2026-05-04 21:09 51.01310 -1.13112 19139 ft 420 kts 246°
2026-05-04 21:10 51.00165 -1.17362 19869 ft 420 kts 246°
2026-05-04 21:10 50.99012 -1.21633 20548 ft 422 kts 245°
2026-05-04 21:10 50.97852 -1.25922 21176 ft 424 kts 245°
2026-05-04 21:10 50.96692 -1.30204 21819 ft 426 kts 245°
2026-05-04 21:11 50.95601 -1.34614 22450 ft 429 kts 251°
2026-05-04 21:11 50.94904 -1.39165 23001 ft 433 kts 256°
2026-05-04 21:11 50.94305 -1.43899 23552 ft 436 kts 257°
2026-05-04 21:11 50.93716 -1.48588 24150 ft 438 kts 256°
2026-05-04 21:12 50.93115 -1.53334 24741 ft 439 kts 256°
2026-05-04 21:12 50.92504 -1.58125 25228 ft 443 kts 256°
2026-05-04 21:12 50.91893 -1.62888 25610 ft 449 kts 256°
2026-05-04 21:12 50.91262 -1.67786 26044 ft 453 kts 255°
2026-05-04 21:13 50.90632 -1.72656 26556 ft 455 kts 255°
2026-05-04 21:13 50.89997 -1.77540 27065 ft 456 kts 255°
2026-05-04 21:13 50.89357 -1.82447 27551 ft 458 kts 255°
2026-05-04 21:13 50.88705 -1.87427 27977 ft 462 kts 255°
2026-05-04 21:14 50.88050 -1.92408 28339 ft 466 kts 255°
2026-05-04 21:14 50.87382 -1.97473 28741 ft 470 kts 255°
2026-05-04 21:14 50.86719 -2.02485 29162 ft 472 kts 255°
2026-05-04 21:14 50.86043 -2.07574 29694 ft 472 kts 255°
2026-05-04 21:15 50.85368 -2.12643 30306 ft 470 kts 255°
2026-05-04 21:15 50.84692 -2.17696 30907 ft 467 kts 255°
2026-05-04 21:15 50.84024 -2.22674 31356 ft 467 kts 255°
2026-05-04 21:15 50.83344 -2.27717 31720 ft 468 kts 255°
2026-05-04 21:16 50.82660 -2.32767 32045 ft 470 kts 255°
2026-05-04 21:16 50.81979 -2.37786 32399 ft 471 kts 255°
2026-05-04 21:16 50.81296 -2.42802 32780 ft 471 kts 256°
2026-05-04 21:16 50.80624 -2.47847 33131 ft 471 kts 258°
2026-05-04 21:17 50.80300 -2.53060 33430 ft 475 kts 268°
2026-05-04 21:17 50.80491 -2.58269 33725 ft 479 kts 277°
2026-05-04 21:17 50.81172 -2.63353 34055 ft 479 kts 284°
2026-05-04 21:17 50.82029 -2.68256 34364 ft 478 kts 284°
2026-05-04 21:18 50.82923 -2.73301 34645 ft 478 kts 285°
2026-05-04 21:18 50.83812 -2.78342 34941 ft 478 kts 285°
2026-05-04 21:18 50.84689 -2.83347 35225 ft 477 kts 285°
2026-05-04 21:18 50.85573 -2.88420 35520 ft 476 kts 285°
2026-05-04 21:19 50.86444 -2.93439 35801 ft 475 kts 285°
2026-05-04 21:19 50.87307 -2.98434 36041 ft 474 kts 285°
2026-05-04 21:19 50.88166 -3.03419 36246 ft 474 kts 285°
2026-05-04 21:19 50.89035 -3.08486 36467 ft 474 kts 285°
2026-05-04 21:20 50.89884 -3.13455 36678 ft 473 kts 285°
2026-05-04 21:20 50.90744 -3.18498 36853 ft 474 kts 285°
2026-05-04 21:20 50.91599 -3.23530 37007 ft 475 kts 285°
2026-05-04 21:20 50.92454 -3.28580 37173 ft 475 kts 285°
2026-05-04 21:21 50.93303 -3.33604 37377 ft 474 kts 285°
2026-05-04 21:21 50.94144 -3.38600 37583 ft 473 kts 285°
2026-05-04 21:21 50.94997 -3.43686 37754 ft 473 kts 285°
2026-05-04 21:21 50.95783 -3.48380 37871 ft 474 kts 285°
2026-05-04 21:22 50.96623 -3.53417 38003 ft 475 kts 285°
2026-05-04 21:22 50.97459 -3.58442 38160 ft 475 kts 285°
2026-05-04 21:22 50.98294 -3.63474 38338 ft 474 kts 285°
2026-05-04 21:22 50.99127 -3.68509 38480 ft 473 kts 284°
2026-05-04 21:23 50.99958 -3.73547 38607 ft 474 kts 284°
2026-05-04 21:23 51.00797 -3.78650 38739 ft 474 kts 284°
2026-05-04 21:23 51.01620 -3.83671 38865 ft 474 kts 284°
2026-05-04 21:23 51.02446 -3.88726 38989 ft 474 kts 284°
2026-05-04 21:24 51.03268 -3.93771 39126 ft 473 kts 284°
2026-05-04 21:24 51.04084 -3.98796 39229 ft 474 kts 284°
2026-05-04 21:24 51.04895 -4.03801 39342 ft 473 kts 284°
2026-05-04 21:24 51.05718 -4.08894 39465 ft 473 kts 285°
2026-05-04 21:25 51.07338 -4.18972 39638 ft 473 kts 285°
2026-05-04 21:25 51.08143 -4.24006 39759 ft 473 kts 285°
2026-05-04 21:25 51.08944 -4.29028 39855 ft 473 kts 285°
2026-05-04 21:26 51.10553 -4.39157 39964 ft 473 kts 285°
2026-05-04 21:26 51.12150 -4.49276 40028 ft 473 kts 285°
2026-05-04 21:27 51.13737 -4.59396 40033 ft 474 kts 285°
2026-05-04 21:27 51.15317 -4.69529 40039 ft 474 kts 284°
2026-05-04 21:28 51.16895 -4.79713 40041 ft 474 kts 284°
2026-05-04 21:28 51.18465 -4.89915 40042 ft 474 kts 284°
2026-05-04 21:29 51.20013 -5.00032 40034 ft 475 kts 284°
2026-05-04 21:29 51.21562 -5.10222 40050 ft 475 kts 284°
2026-05-04 21:30 51.23105 -5.20434 40040 ft 475 kts 284°
2026-05-04 21:30 51.24642 -5.30679 40045 ft 476 kts 284°
2026-05-04 21:31 51.26916 -5.45954 40048 ft 476 kts 284°
2026-05-04 21:32 51.28436 -5.56253 40046 ft 476 kts 284°
2026-05-04 21:32 51.29941 -5.66512 40042 ft 476 kts 283°
2026-05-04 21:33 51.31433 -5.76754 40055 ft 476 kts 283°
2026-05-04 21:33 51.32925 -5.87061 40049 ft 477 kts 283°
2026-05-04 21:34 51.34395 -5.97286 40044 ft 476 kts 283°
2026-05-04 21:34 51.35869 -6.07608 40049 ft 477 kts 283°
2026-05-04 21:35 51.37327 -6.17888 40054 ft 476 kts 283°
2026-05-04 21:35 51.38780 -6.28204 40049 ft 476 kts 283°
2026-05-04 21:36 51.40220 -6.38497 40061 ft 476 kts 284°
2026-05-04 21:36 51.41657 -6.48841 40063 ft 476 kts 284°
2026-05-04 21:37 51.43078 -6.59136 40061 ft 475 kts 283°
2026-05-04 21:37 51.44484 -6.69402 40064 ft 476 kts 283°
2026-05-04 21:38 51.45794 -6.79027 40058 ft 476 kts 283°
2026-05-04 21:38 51.47188 -6.89340 40065 ft 475 kts 283°
2026-05-04 21:39 51.48577 -6.99695 40080 ft 476 kts 283°
2026-05-04 21:39 51.49854 -7.10067 40090 ft 475 kts 278°
2026-05-04 21:40 51.50610 -7.20396 39348 ft 468 kts 277°
2026-05-04 21:40 51.50971 -7.25573 38336 ft 479 kts 278°
2026-05-04 21:40 51.51338 -7.30891 37379 ft 486 kts 278°
2026-05-04 21:40 51.51702 -7.36237 36664 ft 488 kts 279°
2026-05-04 21:41 51.52067 -7.41640 36199 ft 484 kts 279°
2026-05-04 21:41 51.52770 -7.52189 36115 ft 479 kts 279°
2026-05-04 21:42 51.53478 -7.62941 36097 ft 489 kts 279°
2026-05-04 21:42 51.54177 -7.73748 36078 ft 487 kts 279°
2026-05-04 21:43 51.54861 -7.84489 36084 ft 487 kts 279°
2026-05-04 21:43 51.55541 -7.95310 36092 ft 488 kts 279°
2026-05-04 21:44 51.56206 -8.06078 36091 ft 486 kts 279°
2026-05-04 21:44 51.56599 -8.16949 36105 ft 487 kts 276°
2026-05-04 21:45 51.56895 -8.27776 36096 ft 488 kts 276°
2026-05-04 21:45 51.57192 -8.38611 36122 ft 486 kts 276°
2026-05-04 21:46 51.57486 -8.49403 36114 ft 486 kts 276°
2026-05-04 21:46 51.57774 -8.60207 36123 ft 485 kts 276°
2026-05-04 21:47 51.58053 -8.70979 36103 ft 484 kts 275°
2026-05-04 21:47 51.58323 -8.81747 36095 ft 484 kts 275°
2026-05-04 21:48 51.58585 -8.92539 36115 ft 486 kts 275°
2026-05-04 21:48 51.58837 -9.03365 36106 ft 483 kts 276°
2026-05-04 21:49 51.59079 -9.14138 36116 ft 483 kts 275°
2026-05-04 21:49 51.59495 -9.24795 36113 ft 478 kts 282°
2026-05-04 21:50 51.60497 -9.35335 36107 ft 480 kts 283°
2026-05-04 21:50 51.61501 -9.45885 36115 ft 477 kts 282°
2026-05-04 21:51 51.62482 -9.56342 36115 ft 478 kts 282°
2026-05-04 21:51 51.63459 -9.66894 36109 ft 475 kts 282°
2026-05-04 21:52 51.64420 -9.77388 36110 ft 477 kts 282°
2026-05-04 21:52 51.65370 -9.87885 36111 ft 475 kts 282°
2026-05-04 21:53 51.66312 -9.98400 36122 ft 475 kts 282°
2026-05-04 21:53 51.67244 -10.08914 36125 ft 474 kts 281°
2026-05-04 21:54 51.68153 -10.19288 36133 ft 473 kts 281°
2026-05-04 21:54 51.69064 -10.29787 36128 ft 472 kts 281°
2026-05-04 21:55 51.69958 -10.40200 36125 ft 471 kts 282°
2026-05-04 21:55 51.70845 -10.50645 36135 ft 472 kts 281°
2026-05-04 21:56 51.71717 -10.61029 36136 ft 470 kts 281°
2026-05-04 21:56 51.72584 -10.71457 36133 ft 471 kts 281°
2026-05-04 21:57 51.73436 -10.81836 36134 ft 469 kts 281°
2026-05-04 21:57 51.74280 -10.92219 36137 ft 469 kts 280°
2026-05-04 21:58 51.75118 -11.02648 36137 ft 468 kts 280°
2026-05-04 21:58 51.75941 -11.13006 36142 ft 468 kts 280°
2026-05-04 21:59 51.76752 -11.23336 36140 ft 467 kts 280°
2026-05-04 21:59 51.77557 -11.33710 36151 ft 465 kts 280°
2026-05-04 22:00 51.78345 -11.43990 36153 ft 465 kts 280°
2026-05-04 22:00 51.79129 -11.54322 36157 ft 465 kts 280°
2026-05-04 22:01 51.79900 -11.64617 36158 ft 464 kts 280°
2026-05-04 22:01 51.80666 -11.74974 36162 ft 464 kts 279°
2026-05-04 22:02 51.81418 -11.85257 36169 ft 463 kts 279°
2026-05-04 22:02 51.82159 -11.95508 36171 ft 462 kts 279°
2026-05-04 22:03 51.82891 -12.05778 36173 ft 462 kts 279°
2026-05-04 22:03 51.83614 -12.16047 36173 ft 461 kts 279°
2026-05-04 22:04 51.84330 -12.26336 36173 ft 462 kts 279°
2026-05-04 22:04 51.85031 -12.36549 36175 ft 459 kts 279°
2026-05-04 22:05 51.85725 -12.46793 36175 ft 461 kts 279°
2026-05-04 22:05 51.86412 -12.57063 36175 ft 459 kts 278°
2026-05-04 22:06 51.87085 -12.67267 36174 ft 460 kts 278°
2026-05-04 22:06 51.87751 -12.77497 36174 ft 459 kts 278°
2026-05-04 22:07 51.88408 -12.87726 36177 ft 458 kts 278°
2026-05-04 22:07 51.89053 -12.97915 36176 ft 458 kts 277°
2026-05-04 22:08 51.89693 -13.08175 36177 ft 458 kts 277°
2026-05-04 22:08 51.90215 -13.16645 36178 ft 457 kts 277°
2026-05-04 22:09 51.90837 -13.26863 36179 ft 456 kts 277°
2026-05-04 22:09 51.91545 -13.38691 36183 ft 455 kts 277°
2026-05-04 22:10 51.92145 -13.48881 36180 ft 456 kts 277°
2026-05-04 22:10 51.92736 -13.59066 36187 ft 454 kts 277°
2026-05-04 22:11 51.93312 -13.69146 36190 ft 454 kts 276°
2026-05-04 22:11 51.93886 -13.79336 36190 ft 454 kts 276°
2026-05-04 22:12 51.94447 -13.89455 36194 ft 453 kts 276°
2026-05-04 22:12 51.94999 -13.99568 36191 ft 453 kts 276°
2026-05-04 22:13 51.95543 -14.09711 36195 ft 452 kts 276°
2026-05-04 22:13 51.96077 -14.19829 36197 ft 452 kts 276°
2026-05-04 22:14 51.96602 -14.29934 36196 ft 452 kts 276°
2026-05-04 22:14 51.97118 -14.40039 36195 ft 452 kts 276°
2026-05-04 22:15 51.97623 -14.50110 36194 ft 451 kts 276°
2026-05-04 22:15 51.98125 -14.60269 36196 ft 451 kts 276°
2026-05-04 22:16 51.98615 -14.70375 36197 ft 451 kts 275°
2026-05-04 22:16 51.99094 -14.80453 36199 ft 451 kts 275°
2026-05-04 22:17 51.99566 -14.90552 36198 ft 451 kts 276°
2026-05-04 22:17 52.00181 -15.00646 36197 ft 449 kts 283°
2026-05-04 22:18 52.02137 -15.10277 36570 ft 450 kts 292°
2026-05-04 22:18 52.03239 -15.14965 37026 ft 446 kts 292°
2026-05-04 22:18 52.04339 -15.19706 37197 ft 448 kts 291°
2026-05-04 22:19 52.06485 -15.29106 37206 ft 447 kts 291°
2026-05-04 22:19 52.08609 -15.38549 37193 ft 446 kts 291°
2026-05-04 22:20 52.10723 -15.48044 37213 ft 448 kts 291°
2026-05-04 22:20 52.12816 -15.57514 37217 ft 446 kts 291°
2026-05-04 22:21 52.14900 -15.67000 37217 ft 446 kts 290°
2026-05-04 22:21 52.16978 -15.76507 37232 ft 446 kts 290°
2026-05-04 22:22 52.19048 -15.86027 37224 ft 447 kts 290°
2026-05-04 22:22 52.21097 -15.95494 37231 ft 447 kts 290°
2026-05-04 22:23 52.23143 -16.04994 37235 ft 446 kts 290°
2026-05-04 22:23 52.25190 -16.14541 37237 ft 447 kts 290°
2026-05-04 22:24 52.27232 -16.24113 37239 ft 446 kts 290°
2026-05-04 22:24 52.29252 -16.33622 37242 ft 447 kts 290°
2026-05-04 22:25 52.31275 -16.43195 37247 ft 446 kts 290°
2026-05-04 22:25 52.33283 -16.52743 37246 ft 446 kts 290°
2026-05-04 22:26 52.35290 -16.62329 37247 ft 446 kts 290°
2026-05-04 22:26 52.37275 -16.71853 37252 ft 446 kts 289°
2026-05-04 22:27 52.39265 -16.81454 37252 ft 446 kts 289°
2026-05-04 22:27 52.41237 -16.91008 37258 ft 446 kts 289°
2026-05-04 22:28 52.43209 -17.00607 37260 ft 446 kts 289°
2026-05-04 22:28 52.45175 -17.10227 37260 ft 446 kts 289°
2026-05-04 22:29 52.47133 -17.19851 37260 ft 446 kts 289°
2026-05-04 22:29 52.49078 -17.29461 37264 ft 446 kts 289°
2026-05-04 22:30 52.51010 -17.39055 37264 ft 445 kts 289°
2026-05-04 22:30 52.52940 -17.48683 37263 ft 446 kts 289°
2026-05-04 22:31 52.54868 -17.58348 37264 ft 446 kts 289°
2026-05-04 22:31 52.56786 -17.68013 37268 ft 445 kts 288°
2026-05-04 22:32 52.58693 -17.77674 37267 ft 446 kts 288°
2026-05-04 22:32 52.60585 -17.87305 37269 ft 446 kts 288°
2026-05-04 22:33 52.62479 -17.96992 37268 ft 445 kts 288°
2026-05-04 22:33 52.64359 -18.06652 37266 ft 445 kts 288°
2026-05-04 22:34 52.66226 -18.16301 37264 ft 445 kts 288°
2026-05-04 22:34 52.68090 -18.25981 37274 ft 445 kts 288°
2026-05-04 22:35 52.69945 -18.35664 37276 ft 445 kts 288°
2026-05-04 22:35 52.71788 -18.45336 37277 ft 445 kts 289°
2026-05-04 22:36 52.73635 -18.55073 37278 ft 445 kts 289°
2026-05-04 22:36 52.75462 -18.64758 37280 ft 445 kts 289°
2026-05-04 22:37 52.77277 -18.74427 37288 ft 445 kts 288°
2026-05-04 22:37 52.79088 -18.84129 37289 ft 444 kts 288°
2026-05-04 22:38 52.80895 -18.93856 37299 ft 444 kts 288°
2026-05-04 22:38 52.82693 -19.03587 37299 ft 445 kts 288°
2026-05-04 22:39 52.84487 -19.13346 37297 ft 444 kts 288°
2026-05-04 22:39 52.86261 -19.23052 37305 ft 444 kts 288°
2026-05-04 22:40 52.88036 -19.32813 37302 ft 444 kts 288°
2026-05-04 22:40 52.89798 -19.42549 37303 ft 443 kts 288°
2026-05-04 22:41 52.91550 -19.52291 37307 ft 443 kts 288°
2026-05-04 22:41 52.93296 -19.62042 37307 ft 443 kts 288°
2026-05-04 22:42 52.95035 -19.71812 37313 ft 444 kts 287°
2026-05-04 22:42 52.96767 -19.81594 37317 ft 443 kts 287°
2026-05-04 22:43 52.98494 -19.91402 37317 ft 443 kts 287°
2026-05-04 22:43 52.99896 -20.01278 37318 ft 445 kts 277°
2026-05-04 22:44 53.00409 -20.11450 37317 ft 445 kts 276°
2026-05-04 22:44 53.00859 -20.21694 37319 ft 445 kts 276°
2026-05-04 22:45 53.01282 -20.31913 37320 ft 445 kts 276°
2026-05-04 22:45 53.01885 -20.47218 37318 ft 446 kts 275°
2026-05-04 22:46 53.02272 -20.57429 37318 ft 445 kts 275°
2026-05-04 22:46 53.02650 -20.67670 37322 ft 446 kts 275°
2026-05-04 22:47 53.03018 -20.77904 37320 ft 446 kts 275°
2026-05-04 22:47 53.03379 -20.88184 37320 ft 446 kts 275°
2026-05-04 22:48 53.03727 -20.98387 37323 ft 446 kts 275°
2026-05-04 22:48 53.04069 -21.08636 37319 ft 445 kts 275°
2026-05-04 22:49 53.04399 -21.18822 37324 ft 446 kts 275°
2026-05-04 22:49 53.04724 -21.29097 37324 ft 446 kts 275°
2026-05-04 22:50 53.05037 -21.39299 37320 ft 445 kts 275°
2026-05-04 22:50 53.05344 -21.49573 37332 ft 445 kts 275°
2026-05-04 22:51 53.05641 -21.59821 37327 ft 445 kts 275°
2026-05-04 22:51 53.05928 -21.70053 37339 ft 444 kts 274°
2026-05-04 22:52 53.06207 -21.80280 37337 ft 445 kts 274°
2026-05-04 22:52 53.06476 -21.90463 37338 ft 445 kts 274°
2026-05-04 22:53 53.06737 -22.00695 37336 ft 445 kts 274°
2026-05-04 22:53 53.06992 -22.10989 37338 ft 445 kts 274°
2026-05-04 22:54 53.07235 -22.21223 37336 ft 445 kts 274°
2026-05-04 22:54 53.07469 -22.31410 37350 ft 445 kts 274°
2026-05-04 22:55 53.07695 -22.41655 37346 ft 445 kts 274°
2026-05-04 22:55 53.07914 -22.51919 37344 ft 445 kts 274°
2026-05-04 22:56 53.08123 -22.62173 37343 ft 445 kts 274°
2026-05-04 22:56 53.08322 -22.72432 37341 ft 445 kts 273°
2026-05-04 22:57 53.08513 -22.82654 37350 ft 446 kts 273°
2026-05-04 22:57 53.08697 -22.92956 37347 ft 446 kts 273°
2026-05-04 22:58 53.08870 -23.03179 37354 ft 446 kts 273°
2026-05-04 22:58 53.09036 -23.13496 37355 ft 445 kts 273°
2026-05-04 22:59 53.09191 -23.23720 37355 ft 445 kts 272°
2026-05-04 22:59 53.09338 -23.33924 37356 ft 445 kts 272°
2026-05-04 23:00 53.09476 -23.44183 37359 ft 445 kts 272°
2026-05-04 23:00 53.09606 -23.54479 37359 ft 445 kts 272°
2026-05-04 23:01 53.09726 -23.64687 37362 ft 445 kts 272°
2026-05-04 23:01 53.09838 -23.74965 37357 ft 445 kts 272°
2026-05-04 23:02 53.09941 -23.85164 37360 ft 444 kts 272°
2026-05-04 23:02 53.10035 -23.95429 37367 ft 444 kts 271°
2026-05-04 23:03 53.10120 -24.05627 37355 ft 445 kts 271°
2026-05-04 23:03 53.10197 -24.15863 37369 ft 444 kts 271°
2026-05-04 23:04 53.10265 -24.26114 37365 ft 444 kts 271°
2026-05-04 23:04 53.10324 -24.36344 37362 ft 443 kts 271°
2026-05-04 23:05 53.10374 -24.46587 37362 ft 444 kts 271°
2026-05-04 23:05 53.10415 -24.56777 37364 ft 443 kts 271°
2026-05-04 23:06 53.10448 -24.66956 37377 ft 443 kts 271°
2026-05-04 23:06 53.10472 -24.77181 37380 ft 443 kts 271°
2026-05-04 23:07 53.10487 -24.87401 37370 ft 443 kts 271°
2026-05-04 23:07 53.10493 -24.97615 37375 ft 443 kts 271°
2026-05-04 23:08 53.10491 -25.07821 37386 ft 443 kts 271°
2026-05-04 23:08 53.10480 -25.18027 37378 ft 443 kts 270°
2026-05-04 23:09 53.10460 -25.28227 37378 ft 443 kts 271°
2026-05-04 23:09 53.10431 -25.38436 37383 ft 443 kts 270°
2026-05-04 23:10 53.10394 -25.48607 37383 ft 443 kts 270°
2026-05-04 23:10 53.10348 -25.58779 37380 ft 443 kts 271°
2026-05-04 23:11 53.10294 -25.69023 37389 ft 444 kts 270°
2026-05-04 23:11 53.10230 -25.79256 37389 ft 442 kts 270°
2026-05-04 23:12 53.10159 -25.89401 37388 ft 443 kts 270°
2026-05-04 23:12 53.10077 -25.99676 37386 ft 443 kts 270°
2026-05-04 23:13 53.09988 -26.09843 37384 ft 443 kts 270°
2026-05-04 23:13 53.09890 -26.20049 37369 ft 443 kts 270°
2026-05-04 23:14 53.09782 -26.30283 37367 ft 443 kts 270°
2026-05-04 23:14 53.09666 -26.40461 37381 ft 443 kts 270°
2026-05-04 23:15 53.09542 -26.50681 37375 ft 443 kts 270°
2026-05-04 23:15 53.09409 -26.60844 37383 ft 443 kts 270°
2026-05-04 23:16 53.09267 -26.71066 37373 ft 444 kts 269°
2026-05-04 23:16 53.09116 -26.81276 37370 ft 444 kts 269°
2026-05-04 23:17 53.08957 -26.91501 37377 ft 444 kts 269°
2026-05-04 23:17 53.08787 -27.01752 37386 ft 443 kts 269°
2026-05-04 23:18 53.08611 -27.11947 37380 ft 443 kts 269°
2026-05-04 23:18 53.08425 -27.22156 37381 ft 445 kts 269°
2026-05-04 23:19 53.08229 -27.32410 37378 ft 444 kts 269°
2026-05-04 23:19 53.08026 -27.42638 37376 ft 446 kts 269°
2026-05-04 23:20 53.07813 -27.52873 37384 ft 445 kts 269°
2026-05-04 23:20 53.07592 -27.63056 37377 ft 445 kts 269°
2026-05-04 23:21 53.07362 -27.73323 37387 ft 447 kts 269°
2026-05-04 23:21 53.07122 -27.83598 37383 ft 446 kts 269°
2026-05-04 23:22 53.06873 -27.93854 37384 ft 446 kts 269°
2026-05-04 23:22 53.06616 -28.04115 37379 ft 446 kts 269°
2026-05-04 23:23 53.06350 -28.14354 37386 ft 446 kts 269°
2026-05-04 23:23 53.06074 -28.24654 37385 ft 446 kts 269°
2026-05-04 23:24 53.05791 -28.34893 37386 ft 447 kts 269°
2026-05-04 23:24 53.05497 -28.45185 37382 ft 446 kts 269°
2026-05-04 23:25 53.05196 -28.55409 37388 ft 446 kts 269°
2026-05-04 23:25 53.04886 -28.65676 37372 ft 447 kts 268°
2026-05-04 23:26 53.04565 -28.75954 37530 ft 447 kts 268°
2026-05-04 23:26 53.04400 -28.81156 37262 ft 448 kts 268°
2026-05-04 23:26 53.04236 -28.86251 37462 ft 445 kts 268°
2026-05-04 23:27 53.03899 -28.96490 37380 ft 445 kts 268°
2026-05-04 23:27 53.03553 -29.06747 37385 ft 446 kts 268°
2026-05-04 23:28 53.03200 -29.16966 37376 ft 445 kts 268°
2026-05-04 23:28 53.02838 -29.27165 37375 ft 446 kts 268°
2026-05-04 23:29 53.02464 -29.37468 37379 ft 447 kts 268°
2026-05-04 23:29 53.02085 -29.47647 37381 ft 446 kts 268°
2026-05-04 23:30 53.01694 -29.57924 37376 ft 447 kts 269°
2026-05-04 23:30 53.01294 -29.68200 37385 ft 447 kts 268°
2026-05-04 23:31 53.00888 -29.78412 37382 ft 447 kts 268°
2026-05-04 23:31 53.00471 -29.88659 37386 ft 448 kts 268°
2026-05-04 23:32 53.00042 -29.98989 37384 ft 448 kts 268°
2026-05-04 23:32 53.00138 -30.09195 37394 ft 445 kts 277°
2026-05-04 23:33 53.00673 -30.19367 37387 ft 445 kts 276°
2026-05-04 23:33 53.01145 -30.29614 37388 ft 445 kts 276°
2026-05-04 23:34 53.01576 -30.39821 37389 ft 446 kts 276°
2026-05-04 23:34 53.01981 -30.50014 37387 ft 444 kts 276°
2026-05-04 23:35 53.02370 -30.60206 37388 ft 445 kts 276°
2026-05-04 23:35 53.02746 -30.70382 37392 ft 445 kts 275°
2026-05-04 23:36 53.03113 -30.80616 37390 ft 445 kts 275°
2026-05-04 23:36 53.03470 -30.90858 37391 ft 445 kts 275°
2026-05-04 23:37 53.03817 -31.01054 37388 ft 444 kts 275°
2026-05-04 23:37 53.04155 -31.11265 37388 ft 444 kts 275°
2026-05-04 23:38 53.04482 -31.21420 37383 ft 444 kts 275°
2026-05-04 23:38 53.04803 -31.31672 37384 ft 445 kts 276°
2026-05-04 23:39 53.05115 -31.41888 37381 ft 445 kts 276°
2026-05-04 23:39 53.05418 -31.52111 37383 ft 444 kts 276°
2026-05-04 23:40 53.05711 -31.62302 37384 ft 445 kts 276°
2026-05-04 23:40 53.05998 -31.72555 37381 ft 445 kts 275°
2026-05-04 23:41 53.06274 -31.82798 37383 ft 445 kts 275°
2026-05-04 23:41 53.06542 -31.93007 37387 ft 445 kts 275°
2026-05-04 23:42 53.06801 -32.03225 37386 ft 445 kts 275°
2026-05-04 23:42 53.07052 -32.13482 37389 ft 445 kts 275°
2026-05-04 23:43 53.07293 -32.23712 37390 ft 445 kts 275°
2026-05-04 23:43 53.07526 -32.33926 37390 ft 444 kts 275°
2026-05-04 23:44 53.07750 -32.44175 37390 ft 442 kts 276°
2026-05-04 23:44 53.07964 -32.54332 37382 ft 445 kts 276°
2026-05-04 23:45 53.08170 -32.64576 37390 ft 445 kts 276°
2026-05-04 23:45 53.08367 -32.74759 37397 ft 442 kts 275°
2026-05-04 23:46 53.08554 -32.84913 37392 ft 443 kts 275°
2026-05-04 23:46 53.08734 -32.95143 37392 ft 444 kts 275°
2026-05-04 23:47 53.08905 -33.05378 37388 ft 441 kts 275°
2026-05-04 23:47 53.09067 -33.15530 37383 ft 442 kts 275°
2026-05-04 23:48 53.09220 -33.25664 37388 ft 442 kts 276°
2026-05-04 23:48 53.09363 -33.35810 37373 ft 440 kts 275°
2026-05-04 23:49 53.09499 -33.45946 37390 ft 440 kts 276°
2026-05-04 23:49 53.09626 -33.56114 37379 ft 439 kts 276°
2026-05-04 23:50 53.09743 -33.66228 37383 ft 439 kts 275°
2026-05-04 23:50 53.09851 -33.76281 37368 ft 437 kts 275°
2026-05-04 23:51 53.09952 -33.86361 37372 ft 439 kts 275°
2026-05-04 23:51 53.10043 -33.96429 37372 ft 437 kts 276°
2026-05-04 23:52 53.10127 -34.06510 37366 ft 439 kts 276°
2026-05-04 23:52 53.10201 -34.16607 37370 ft 435 kts 276°
2026-05-04 23:53 53.10268 -34.26666 37387 ft 436 kts 276°
2026-05-04 23:53 53.10324 -34.36640 37374 ft 431 kts 276°
2026-05-04 23:54 53.10374 -34.46658 37373 ft 434 kts 276°
2026-05-04 23:54 53.10414 -34.56569 37372 ft 431 kts 276°
2026-05-04 23:55 53.10445 -34.66503 37366 ft 429 kts 275°
2026-05-04 23:56 53.10478 -34.81374 37376 ft 429 kts 276°
2026-05-04 23:56 53.10489 -34.91208 37379 ft 428 kts 276°
2026-05-04 23:57 53.10493 -35.01092 37389 ft 429 kts 276°
2026-05-04 23:57 53.10487 -35.10907 37403 ft 425 kts 276°
2026-05-04 23:58 53.10475 -35.20762 37383 ft 425 kts 276°
2026-05-04 23:58 53.10454 -35.30495 37373 ft 423 kts 276°
2026-05-04 23:59 53.10426 -35.40262 37373 ft 425 kts 276°
2026-05-04 23:59 53.10388 -35.50035 37380 ft 421 kts 276°
2026-05-05 00:00 53.10344 -35.59753 37359 ft 423 kts 276°
2026-05-05 00:00 53.10290 -35.69458 37378 ft 418 kts 275°
2026-05-05 00:01 53.10231 -35.79169 37371 ft 423 kts 275°
2026-05-05 00:01 53.10162 -35.88888 37373 ft 419 kts 275°
2026-05-05 00:02 53.10086 -35.98500 37371 ft 418 kts 275°
2026-05-05 00:02 53.10003 -36.08190 37380 ft 420 kts 275°
2026-05-05 00:03 53.09912 -36.17822 37357 ft 419 kts 275°
2026-05-05 00:03 53.09812 -36.27472 37353 ft 417 kts 275°
2026-05-05 00:04 53.09705 -36.37072 37331 ft 415 kts 275°
2026-05-05 00:04 53.09592 -36.46661 37331 ft 419 kts 275°
2026-05-05 00:05 53.09470 -36.56235 37339 ft 415 kts 275°
2026-05-05 00:05 53.09341 -36.65789 37332 ft 414 kts 274°
2026-05-05 00:06 53.09205 -36.75381 37316 ft 419 kts 274°
2026-05-05 00:06 53.09059 -36.84990 37337 ft 414 kts 274°
2026-05-05 00:07 53.08907 -36.94604 37310 ft 418 kts 274°
2026-05-05 00:07 53.08746 -37.04161 37303 ft 414 kts 274°
2026-05-05 00:08 53.08580 -37.13730 37308 ft 419 kts 274°
2026-05-05 00:08 53.08402 -37.23362 37303 ft 415 kts 273°
2026-05-05 00:09 53.08219 -37.32949 37295 ft 419 kts 274°
2026-05-05 00:09 53.08028 -37.42506 37296 ft 414 kts 273°
2026-05-05 00:10 53.07829 -37.52130 37290 ft 418 kts 273°
2026-05-05 00:10 53.07623 -37.61720 37293 ft 418 kts 273°
2026-05-05 00:11 53.07407 -37.71332 37520 ft 417 kts 272°
2026-05-05 00:11 53.07299 -37.76092 37296 ft 419 kts 272°
2026-05-05 00:11 53.07185 -37.80916 37294 ft 413 kts 272°
2026-05-05 00:12 53.06958 -37.90409 37290 ft 417 kts 272°
2026-05-05 00:12 53.06720 -38.00048 37288 ft 419 kts 272°
2026-05-05 00:13 53.06474 -38.09619 37286 ft 415 kts 271°
2026-05-05 00:13 53.06222 -38.19176 37275 ft 419 kts 271°
2026-05-05 00:14 53.05959 -38.28835 37271 ft 416 kts 271°
2026-05-05 00:14 53.05693 -38.38356 37270 ft 416 kts 271°
2026-05-05 00:15 53.05418 -38.47909 37263 ft 414 kts 271°
2026-05-05 00:15 53.05137 -38.57372 37263 ft 414 kts 271°
2026-05-05 00:15 53.04993 -38.62171 37060 ft 414 kts 270°
2026-05-05 00:16 53.04847 -38.66916 37261 ft 416 kts 269°
2026-05-05 00:16 53.04548 -38.76506 37259 ft 417 kts 269°
2026-05-05 00:17 53.04243 -38.86010 37252 ft 413 kts 269°
2026-05-05 00:17 53.03931 -38.95550 37252 ft 417 kts 269°
2026-05-05 00:18 53.03609 -39.05122 37244 ft 414 kts 269°
2026-05-05 00:18 53.03280 -39.14669 37238 ft 416 kts 269°
2026-05-05 00:19 53.02944 -39.24201 37223 ft 414 kts 268°
2026-05-05 00:19 53.02602 -39.33694 37225 ft 416 kts 268°
2026-05-05 00:20 53.02248 -39.43294 37225 ft 415 kts 268°
2026-05-05 00:20 53.01891 -39.52781 37219 ft 413 kts 268°
2026-05-05 00:21 53.01526 -39.62278 37213 ft 414 kts 268°
2026-05-05 00:21 53.01153 -39.71771 37215 ft 415 kts 267°
2026-05-05 00:22 53.00773 -39.81276 37213 ft 415 kts 267°
2026-05-05 00:22 53.00384 -39.90786 37199 ft 413 kts 266°
2026-05-05 00:23 52.99962 -40.00319 37199 ft 416 kts 265°
2026-05-05 00:23 52.99432 -40.09860 37206 ft 416 kts 265°
2026-05-05 00:24 52.98895 -40.19307 37173 ft 414 kts 265°
2026-05-05 00:24 52.98341 -40.28842 37169 ft 418 kts 265°
2026-05-05 00:25 52.97779 -40.38379 37168 ft 417 kts 264°
2026-05-05 00:25 52.97214 -40.47834 37158 ft 416 kts 264°
2026-05-05 00:26 52.96629 -40.57464 37455 ft 420 kts 264°
2026-05-05 00:26 52.96042 -40.67008 37140 ft 418 kts 263°
2026-05-05 00:27 52.95450 -40.76516 37143 ft 420 kts 263°
2026-05-05 00:27 52.94844 -40.86114 37128 ft 419 kts 263°
2026-05-05 00:28 52.94234 -40.95655 37118 ft 419 kts 263°
2026-05-05 00:28 52.93614 -41.05210 37109 ft 421 kts 263°
2026-05-05 00:29 52.92983 -41.14843 37109 ft 420 kts 262°
2026-05-05 00:29 52.92345 -41.24426 37105 ft 422 kts 262°
2026-05-05 00:30 52.91695 -41.34087 37094 ft 422 kts 262°
2026-05-05 00:30 52.91039 -41.43726 37094 ft 424 kts 262°
2026-05-05 00:31 52.90377 -41.53337 37089 ft 424 kts 262°
2026-05-05 00:31 52.89700 -41.63032 37091 ft 424 kts 262°
2026-05-05 00:32 52.89016 -41.72723 37093 ft 426 kts 261°
2026-05-05 00:32 52.88325 -41.82397 37085 ft 426 kts 261°
2026-05-05 00:33 52.87621 -41.92141 37083 ft 425 kts 261°
2026-05-05 00:33 52.86914 -42.01801 37071 ft 429 kts 261°
2026-05-05 00:34 52.86192 -42.11575 37075 ft 429 kts 261°
2026-05-05 00:34 52.85460 -42.21362 37058 ft 430 kts 261°
2026-05-05 00:35 52.84727 -42.31055 37050 ft 428 kts 261°
2026-05-05 00:35 52.83981 -42.40801 37038 ft 431 kts 260°
2026-05-05 00:36 52.83221 -42.50630 37031 ft 431 kts 260°
2026-05-05 00:36 52.82455 -42.60426 37032 ft 430 kts 259°
2026-05-05 00:37 52.81683 -42.70202 37025 ft 431 kts 259°
2026-05-05 00:37 52.80900 -42.79995 37014 ft 433 kts 259°
2026-05-05 00:38 52.80107 -42.89816 37015 ft 434 kts 259°
2026-05-05 00:38 52.79302 -42.99685 36995 ft 434 kts 259°
2026-05-05 00:39 52.78492 -43.09510 36992 ft 435 kts 258°
2026-05-05 00:39 52.77669 -43.19386 36976 ft 434 kts 258°
2026-05-05 00:40 52.76842 -43.29213 36963 ft 436 kts 258°
2026-05-05 00:40 52.75997 -43.39144 36956 ft 436 kts 258°
2026-05-05 00:41 52.75147 -43.49041 36953 ft 437 kts 258°
2026-05-05 00:41 52.74294 -43.58881 36944 ft 438 kts 258°
2026-05-05 00:42 52.73423 -43.68812 36945 ft 439 kts 257°
2026-05-05 00:42 52.72547 -43.78718 36752 ft 438 kts 257°
2026-05-05 00:42 52.72100 -43.83720 36926 ft 441 kts 257°
2026-05-05 00:43 52.71653 -43.88709 36924 ft 443 kts 256°
2026-05-05 00:43 52.70754 -43.98679 36911 ft 443 kts 256°
2026-05-05 00:44 52.69842 -44.08680 36905 ft 443 kts 256°
2026-05-05 00:44 52.68922 -44.18681 36892 ft 446 kts 256°
2026-05-05 00:45 52.67989 -44.28733 36898 ft 443 kts 256°
2026-05-05 00:45 52.67050 -44.38744 36886 ft 443 kts 256°
2026-05-05 00:46 52.66107 -44.48699 36876 ft 446 kts 256°
2026-05-05 00:46 52.65144 -44.58773 36869 ft 447 kts 256°
2026-05-05 00:47 52.64175 -44.68827 36860 ft 447 kts 255°
2026-05-05 00:47 52.63192 -44.78925 36864 ft 451 kts 255°
2026-05-05 00:48 52.62193 -44.89105 36868 ft 448 kts 255°
2026-05-05 00:48 52.61187 -44.99237 36850 ft 454 kts 255°
2026-05-05 00:49 52.60174 -45.09385 36842 ft 450 kts 254°
2026-05-05 00:49 52.59150 -45.19523 36830 ft 454 kts 254°
2026-05-05 00:50 52.58111 -45.29726 36821 ft 455 kts 254°
2026-05-05 00:50 52.57059 -45.39966 36819 ft 457 kts 254°
2026-05-05 00:51 52.55999 -45.50193 36803 ft 458 kts 253°
2026-05-05 00:51 52.54926 -45.60460 36808 ft 459 kts 254°
2026-05-05 00:52 52.53842 -45.70731 36796 ft 459 kts 253°
2026-05-05 00:52 52.52738 -45.81108 36787 ft 461 kts 253°
2026-05-05 00:53 52.51631 -45.91425 36782 ft 460 kts 253°
2026-05-05 00:53 52.50519 -46.01695 36778 ft 461 kts 253°
2026-05-05 00:54 52.49387 -46.12056 36754 ft 465 kts 252°
2026-05-05 00:54 52.48241 -46.22478 36753 ft 463 kts 252°
2026-05-05 00:55 52.47089 -46.32853 36759 ft 465 kts 252°
2026-05-05 00:55 52.45926 -46.43238 36751 ft 465 kts 252°
2026-05-05 00:56 52.44760 -46.53567 36734 ft 466 kts 252°
2026-05-05 00:56 52.43570 -46.64017 36728 ft 465 kts 252°
2026-05-05 00:57 52.42387 -46.74325 36721 ft 465 kts 251°
2026-05-05 00:57 52.41182 -46.84728 36716 ft 469 kts 251°
2026-05-05 00:58 52.39963 -46.95186 36701 ft 466 kts 251°
2026-05-05 00:58 52.38749 -47.05507 36703 ft 468 kts 251°
2026-05-05 00:59 52.37506 -47.15990 36698 ft 469 kts 251°
2026-05-05 00:59 52.36258 -47.26437 36702 ft 471 kts 250°
2026-05-05 01:00 52.34998 -47.36898 36694 ft 470 kts 251°
2026-05-05 01:00 52.33740 -47.47266 36684 ft 469 kts 251°
2026-05-05 01:01 52.32453 -47.57777 36680 ft 472 kts 250°
2026-05-05 01:01 52.31167 -47.68218 36656 ft 470 kts 249°
2026-05-05 01:02 52.29864 -47.78688 36658 ft 475 kts 250°
2026-05-05 01:02 52.28553 -47.89172 36642 ft 471 kts 250°
2026-05-05 01:03 52.27237 -47.99594 36611 ft 475 kts 250°
2026-05-05 01:03 52.25901 -48.10106 36654 ft 473 kts 250°
2026-05-05 01:04 52.24568 -48.20522 36643 ft 474 kts 250°
2026-05-05 01:04 52.22514 -48.36389 36639 ft 480 kts 250°
2026-05-05 01:05 52.21138 -48.46949 36624 ft 476 kts 250°
2026-05-05 01:05 52.19756 -48.57452 36611 ft 479 kts 250°
2026-05-05 01:06 52.18348 -48.68076 36582 ft 478 kts 249°
2026-05-05 01:06 52.16947 -48.78583 36625 ft 479 kts 249°
2026-05-05 01:07 52.15525 -48.89156 36605 ft 481 kts 249°
2026-05-05 01:07 52.14095 -48.99720 36614 ft 481 kts 249°
2026-05-05 01:08 52.12652 -49.10305 36595 ft 480 kts 249°
2026-05-05 01:08 52.11190 -49.20941 36560 ft 482 kts 250°
2026-05-05 01:09 52.09734 -49.31476 36575 ft 479 kts 249°
2026-05-05 01:09 52.08269 -49.41988 36572 ft 481 kts 249°
2026-05-05 01:10 52.06777 -49.52607 36589 ft 482 kts 250°
2026-05-05 01:10 52.05299 -49.63094 36566 ft 476 kts 249°
2026-05-05 01:11 52.03796 -49.73632 36571 ft 482 kts 249°
2026-05-05 01:11 52.02301 -49.84082 36528 ft 478 kts 249°
2026-05-05 01:12 52.00787 -49.94573 36537 ft 480 kts 249°
2026-05-05 01:12 51.98738 -50.04655 36533 ft 469 kts 242°
2026-05-05 01:13 51.96411 -50.14609 36556 ft 472 kts 242°
2026-05-05 01:13 51.94064 -50.24476 36528 ft 472 kts 242°
2026-05-05 01:14 51.91694 -50.34325 36518 ft 470 kts 241°
2026-05-05 01:14 51.89297 -50.44188 36519 ft 473 kts 242°
2026-05-05 01:15 51.86894 -50.54024 36521 ft 473 kts 241°
2026-05-05 01:15 51.84461 -50.63922 36530 ft 474 kts 242°
2026-05-05 01:16 51.82052 -50.73686 36515 ft 470 kts 241°
2026-05-05 01:16 51.79599 -50.83559 36502 ft 475 kts 241°
2026-05-05 01:17 51.77149 -50.93393 36503 ft 474 kts 241°
2026-05-05 01:17 51.74701 -51.03172 36481 ft 474 kts 241°
2026-05-05 01:18 51.72215 -51.13050 36491 ft 475 kts 241°
2026-05-05 01:18 51.69740 -51.22848 36502 ft 474 kts 241°
2026-05-05 01:19 51.67252 -51.32654 36472 ft 474 kts 241°
2026-05-05 01:19 51.64755 -51.42449 36473 ft 474 kts 241°
2026-05-05 01:20 51.62245 -51.52251 36462 ft 477 kts 242°
2026-05-05 01:20 51.59724 -51.62057 36464 ft 477 kts 242°
2026-05-05 01:21 51.57201 -51.71835 36429 ft 474 kts 241°
2026-05-05 01:21 51.54676 -51.81568 36432 ft 475 kts 241°
2026-05-05 01:22 51.52124 -51.91365 36427 ft 477 kts 242°
2026-05-05 01:22 51.49579 -52.01096 36421 ft 473 kts 241°
2026-05-05 01:23 51.47016 -52.10846 36425 ft 478 kts 241°
2026-05-05 01:23 51.44452 -52.20570 36394 ft 475 kts 242°
2026-05-05 01:24 51.41877 -52.30287 36404 ft 477 kts 242°
2026-05-05 01:24 51.39285 -52.40028 36397 ft 477 kts 242°
2026-05-05 01:25 51.36685 -52.49759 36383 ft 476 kts 242°
2026-05-05 01:25 51.34085 -52.59448 36373 ft 478 kts 242°
2026-05-05 01:26 51.31466 -52.69170 36352 ft 475 kts 241°
2026-05-05 01:26 51.28851 -52.78831 36365 ft 478 kts 241°
2026-05-05 01:27 51.26212 -52.88541 36342 ft 477 kts 242°
2026-05-05 01:27 51.23575 -52.98204 36353 ft 478 kts 242°
2026-05-05 01:28 51.20917 -53.07907 36340 ft 477 kts 242°
2026-05-05 01:28 51.18260 -53.17560 36348 ft 478 kts 242°
2026-05-05 01:29 51.15563 -53.27168 36372 ft 482 kts 240°
2026-05-05 01:29 51.14114 -53.31972 36632 ft 482 kts 240°
2026-05-05 01:29 51.12664 -53.36760 37088 ft 478 kts 240°
2026-05-05 01:30 51.11221 -53.41523 37316 ft 479 kts 240°
2026-05-05 01:30 51.09781 -53.46273 37326 ft 480 kts 240°
2026-05-05 01:30 51.06904 -53.55749 37305 ft 476 kts 241°
2026-05-05 01:31 51.04038 -53.65161 37299 ft 478 kts 240°
2026-05-05 01:31 51.01133 -53.74672 37298 ft 476 kts 240°
2026-05-05 01:32 50.98253 -53.84068 37296 ft 476 kts 240°
2026-05-05 01:32 50.95363 -53.93463 37282 ft 477 kts 240°
2026-05-05 01:33 50.92464 -54.02850 37283 ft 476 kts 240°
2026-05-05 01:33 50.89555 -54.12236 37284 ft 475 kts 240°
2026-05-05 01:34 50.86632 -54.21627 37280 ft 476 kts 240°
2026-05-05 01:34 50.83728 -54.30924 37282 ft 475 kts 240°
2026-05-05 01:35 50.80784 -54.40312 37274 ft 476 kts 240°
2026-05-05 01:35 50.77851 -54.49632 37271 ft 476 kts 240°
2026-05-05 01:36 50.74913 -54.58932 37258 ft 476 kts 240°
2026-05-05 01:36 50.71958 -54.68250 37249 ft 474 kts 240°
2026-05-05 01:37 50.69019 -54.77486 37256 ft 474 kts 240°
2026-05-05 01:37 50.66065 -54.86728 37246 ft 476 kts 240°
2026-05-05 01:38 50.63084 -54.96024 37248 ft 473 kts 240°
2026-05-05 01:38 50.60112 -55.05257 37242 ft 475 kts 240°
2026-05-05 01:39 50.57147 -55.14434 37239 ft 474 kts 240°
2026-05-05 01:39 50.54152 -55.23668 37234 ft 474 kts 240°
2026-05-05 01:40 50.51172 -55.32826 37235 ft 473 kts 240°
2026-05-05 01:40 50.48177 -55.41992 37226 ft 473 kts 240°
2026-05-05 01:41 50.45177 -55.51142 37220 ft 473 kts 240°
2026-05-05 01:41 50.42166 -55.60289 37220 ft 473 kts 240°
2026-05-05 01:42 50.39146 -55.69433 37211 ft 473 kts 240°
2026-05-05 01:42 50.36135 -55.78517 37214 ft 472 kts 240°
2026-05-05 01:43 50.33099 -55.87643 37216 ft 472 kts 240°
2026-05-05 01:43 50.30080 -55.96682 37203 ft 472 kts 240°
2026-05-05 01:44 50.27038 -56.05763 37205 ft 471 kts 240°
2026-05-05 01:44 50.24012 -56.14758 37214 ft 471 kts 240°
2026-05-05 01:45 50.20982 -56.23738 37206 ft 470 kts 240°
2026-05-05 01:45 50.17929 -56.32750 37206 ft 471 kts 240°
2026-05-05 01:46 50.14879 -56.41724 37209 ft 470 kts 240°
2026-05-05 01:46 50.11824 -56.50680 37211 ft 469 kts 240°
2026-05-05 01:47 50.08758 -56.59634 37208 ft 470 kts 240°
2026-05-05 01:47 50.05698 -56.68540 37214 ft 468 kts 239°
2026-05-05 01:48 50.02627 -56.77451 37222 ft 467 kts 239°
2026-05-05 01:48 49.99558 -56.86321 37219 ft 468 kts 239°
2026-05-05 01:49 49.96492 -56.95153 37212 ft 467 kts 239°
2026-05-05 01:49 49.93417 -57.03982 37208 ft 468 kts 239°
2026-05-05 01:50 49.90319 -57.12841 37203 ft 467 kts 239°
2026-05-05 01:50 49.87225 -57.21663 37203 ft 468 kts 240°
2026-05-05 01:51 49.84122 -57.30480 37198 ft 468 kts 240°
2026-05-05 01:51 49.81002 -57.39314 37196 ft 469 kts 240°
2026-05-05 01:52 49.77885 -57.48109 37194 ft 469 kts 240°
2026-05-05 01:52 49.74746 -57.56936 37189 ft 469 kts 240°
2026-05-05 01:53 49.71608 -57.65729 37188 ft 469 kts 239°
2026-05-05 01:53 49.68472 -57.74487 37189 ft 469 kts 239°
2026-05-05 01:54 49.65325 -57.83247 37202 ft 468 kts 239°
2026-05-05 01:54 49.62150 -57.92054 37228 ft 469 kts 239°
2026-05-05 01:55 49.58993 -58.00780 37244 ft 470 kts 239°
2026-05-05 01:55 49.55819 -58.09528 37257 ft 468 kts 239°
2026-05-05 01:56 49.52667 -58.18184 37279 ft 466 kts 239°
2026-05-05 01:56 49.49477 -58.26912 37284 ft 468 kts 239°
2026-05-05 01:57 49.46301 -58.35574 37284 ft 467 kts 239°
2026-05-05 01:57 49.43113 -58.44241 37289 ft 466 kts 239°
2026-05-05 01:58 49.39930 -58.52866 37290 ft 466 kts 239°
2026-05-05 01:58 49.36737 -58.61490 37298 ft 465 kts 239°
2026-05-05 01:59 49.33559 -58.70044 37302 ft 465 kts 239°
2026-05-05 01:59 49.30356 -58.78637 37298 ft 465 kts 239°
2026-05-05 02:00 49.27159 -58.87187 37305 ft 465 kts 239°
2026-05-05 02:00 49.23935 -58.95779 37316 ft 464 kts 239°
2026-05-05 02:01 49.20744 -59.04256 37312 ft 464 kts 239°
2026-05-05 02:01 49.17517 -59.12802 37310 ft 464 kts 239°
2026-05-05 02:02 49.14292 -59.21313 37322 ft 463 kts 239°
2026-05-05 02:02 49.11073 -59.29783 37315 ft 464 kts 239°
2026-05-05 02:03 49.07838 -59.38266 37316 ft 463 kts 239°
2026-05-05 02:03 49.04606 -59.46715 37320 ft 463 kts 239°
2026-05-05 02:04 49.01374 -59.55138 37330 ft 463 kts 239°
2026-05-05 02:04 48.98119 -59.63593 37331 ft 463 kts 239°
2026-05-05 02:05 48.94866 -59.72014 37326 ft 463 kts 239°
2026-05-05 02:05 48.91625 -59.80378 37337 ft 463 kts 239°
2026-05-05 02:06 48.88361 -59.88777 37341 ft 462 kts 239°
2026-05-05 02:06 48.85087 -59.97172 37362 ft 462 kts 239°
2026-05-05 02:07 48.81828 -60.05503 37359 ft 463 kts 239°
2026-05-05 02:07 48.78534 -60.13899 37369 ft 462 kts 239°
2026-05-05 02:08 48.75251 -60.22240 37361 ft 462 kts 239°
2026-05-05 02:08 48.71958 -60.30579 37370 ft 462 kts 239°
2026-05-05 02:09 48.68671 -60.38878 37376 ft 461 kts 239°
2026-05-05 02:09 48.65385 -60.47146 37388 ft 462 kts 239°
2026-05-05 02:10 48.62089 -60.55415 37406 ft 460 kts 239°
2026-05-05 02:10 48.58792 -60.63663 37393 ft 461 kts 239°
2026-05-05 02:11 48.55473 -60.71938 37396 ft 461 kts 238°
2026-05-05 02:11 48.52177 -60.80132 37413 ft 460 kts 238°
2026-05-05 02:12 48.47203 -60.92446 37424 ft 460 kts 238°
2026-05-05 02:13 48.43886 -61.00631 37412 ft 459 kts 238°
2026-05-05 02:13 48.40580 -61.08760 37436 ft 457 kts 238°
2026-05-05 02:14 48.37250 -61.16924 37423 ft 459 kts 238°
2026-05-05 02:14 48.33906 -61.25098 37427 ft 458 kts 238°
2026-05-05 02:15 48.30577 -61.33212 37436 ft 458 kts 238°
2026-05-05 02:15 48.27249 -61.41298 37450 ft 458 kts 238°
2026-05-05 02:16 48.23911 -61.49382 37464 ft 458 kts 238°
2026-05-05 02:16 48.20566 -61.57461 37471 ft 457 kts 238°
2026-05-05 02:17 48.17199 -61.65568 37459 ft 458 kts 238°
2026-05-05 02:17 48.13862 -61.73578 37481 ft 458 kts 238°
2026-05-05 02:18 48.10492 -61.81645 37485 ft 457 kts 238°
2026-05-05 02:18 48.07108 -61.89722 37491 ft 458 kts 238°
2026-05-05 02:19 48.03730 -61.97757 37487 ft 459 kts 238°
2026-05-05 02:19 48.00354 -62.05766 37498 ft 457 kts 238°
2026-05-05 02:20 47.96955 -62.13807 37508 ft 458 kts 238°
2026-05-05 02:20 47.93578 -62.21769 37505 ft 458 kts 238°
2026-05-05 02:21 47.90164 -62.29797 37513 ft 458 kts 238°
2026-05-05 02:21 47.86776 -62.37740 37527 ft 458 kts 238°
2026-05-05 02:22 47.83360 -62.45725 37518 ft 457 kts 238°
2026-05-05 02:22 47.79951 -62.53671 37525 ft 457 kts 238°
2026-05-05 02:23 47.76540 -62.61596 37523 ft 458 kts 238°
2026-05-05 02:23 47.73120 -62.69521 37539 ft 457 kts 237°
2026-05-05 02:24 47.69733 -62.77348 37541 ft 457 kts 237°
2026-05-05 02:24 47.66311 -62.85231 37545 ft 457 kts 237°
2026-05-05 02:25 47.62857 -62.93164 37546 ft 457 kts 237°
2026-05-05 02:25 47.59412 -63.01055 37550 ft 457 kts 237°
2026-05-05 02:26 47.55980 -63.08895 37553 ft 456 kts 237°
2026-05-05 02:26 47.52517 -63.16781 37546 ft 457 kts 237°
2026-05-05 02:27 47.49072 -63.24605 37563 ft 456 kts 238°
2026-05-05 02:27 47.45605 -63.32455 37563 ft 456 kts 238°
2026-05-05 02:28 47.42157 -63.40241 37575 ft 456 kts 238°
2026-05-05 02:28 47.38684 -63.48060 37561 ft 457 kts 238°
2026-05-05 02:29 47.35217 -63.55842 37565 ft 456 kts 238°
2026-05-05 02:29 47.31745 -63.63615 37566 ft 457 kts 238°
2026-05-05 02:30 47.28260 -63.71397 37579 ft 457 kts 237°
2026-05-05 02:30 47.24760 -63.79187 37578 ft 456 kts 237°
2026-05-05 02:31 47.21276 -63.86921 37584 ft 456 kts 237°
2026-05-05 02:31 47.17771 -63.94679 37589 ft 456 kts 237°
2026-05-05 02:32 47.14274 -64.02401 37597 ft 456 kts 237°
2026-05-05 02:32 47.10770 -64.10112 37597 ft 456 kts 237°
2026-05-05 02:33 47.07249 -64.17841 37594 ft 456 kts 237°
2026-05-05 02:33 47.03733 -64.25537 37605 ft 456 kts 237°
2026-05-05 02:34 47.00223 -64.33200 37605 ft 456 kts 237°
2026-05-05 02:34 46.96699 -64.40871 37614 ft 455 kts 237°
2026-05-05 02:35 46.93173 -64.48526 37615 ft 456 kts 237°
2026-05-05 02:35 46.89624 -64.56208 37624 ft 454 kts 237°
2026-05-05 02:36 46.86097 -64.63823 37631 ft 455 kts 237°
2026-05-05 02:36 46.82564 -64.71429 37634 ft 455 kts 237°
2026-05-05 02:37 46.78996 -64.79089 37640 ft 454 kts 237°
2026-05-05 02:37 46.75449 -64.86684 37640 ft 454 kts 237°
2026-05-05 02:38 46.71915 -64.94230 37645 ft 453 kts 237°
2026-05-05 02:38 46.68353 -65.01816 37643 ft 453 kts 237°
2026-05-05 02:39 46.64826 -65.09306 37651 ft 452 kts 237°
2026-05-05 02:39 46.61279 -65.16821 37658 ft 451 kts 237°
2026-05-05 02:40 46.57734 -65.24308 37650 ft 452 kts 237°
2026-05-05 02:40 46.54167 -65.31822 37655 ft 451 kts 237°
2026-05-05 02:41 46.50621 -65.39272 37662 ft 450 kts 237°
2026-05-05 02:41 46.47091 -65.46670 37664 ft 449 kts 237°
2026-05-05 02:42 46.43534 -65.54102 37665 ft 449 kts 237°
2026-05-05 02:42 46.39981 -65.61508 37664 ft 448 kts 237°
2026-05-05 02:43 46.36422 -65.68907 37681 ft 449 kts 237°
2026-05-05 02:43 46.32862 -65.76289 37683 ft 448 kts 237°
2026-05-05 02:44 46.29297 -65.83661 37676 ft 448 kts 237°
2026-05-05 02:44 46.25739 -65.90999 37680 ft 448 kts 237°
2026-05-05 02:45 46.22160 -65.98363 37678 ft 448 kts 237°
2026-05-05 02:45 46.18585 -66.05697 37685 ft 448 kts 237°
2026-05-05 02:46 46.15022 -66.12987 37700 ft 446 kts 237°
2026-05-05 02:46 46.11469 -66.20241 37702 ft 447 kts 237°
2026-05-05 02:47 46.07874 -66.27560 37705 ft 446 kts 237°
2026-05-05 02:47 46.04297 -66.34823 37705 ft 446 kts 237°
2026-05-05 02:48 46.00708 -66.42091 37708 ft 446 kts 237°
2026-05-05 02:48 45.97140 -66.49298 37710 ft 444 kts 237°
2026-05-05 02:49 45.93566 -66.56500 37717 ft 444 kts 237°
2026-05-05 02:49 45.89977 -66.63713 37714 ft 444 kts 237°
2026-05-05 02:50 45.86409 -66.70866 37727 ft 444 kts 236°
2026-05-05 02:50 45.82825 -66.78031 37729 ft 442 kts 236°
2026-05-05 02:51 45.79252 -66.85159 37724 ft 443 kts 236°
2026-05-05 02:51 45.75666 -66.92293 37719 ft 443 kts 237°
2026-05-05 02:52 45.72091 -66.99388 37722 ft 441 kts 236°
2026-05-05 02:52 45.68496 -67.06504 37726 ft 440 kts 236°
2026-05-05 02:53 45.64904 -67.13598 37723 ft 443 kts 237°
2026-05-05 02:53 45.61315 -67.20667 37734 ft 441 kts 237°
2026-05-05 02:54 45.57719 -67.27731 37727 ft 441 kts 236°
2026-05-05 02:54 45.54125 -67.34777 37727 ft 440 kts 236°
2026-05-05 02:55 45.50538 -67.41789 37744 ft 441 kts 237°
2026-05-05 02:55 45.46925 -67.48834 37745 ft 441 kts 237°
2026-05-05 02:56 45.43327 -67.55834 37743 ft 440 kts 237°
2026-05-05 02:56 45.39719 -67.62836 37752 ft 440 kts 237°
2026-05-05 02:57 45.36119 -67.69805 37743 ft 440 kts 236°
2026-05-05 02:57 45.32413 -67.76759 37772 ft 440 kts 234°
2026-05-05 02:58 45.28676 -67.83612 37764 ft 440 kts 234°
2026-05-05 02:58 45.24941 -67.90433 37753 ft 440 kts 234°
2026-05-05 02:59 45.21176 -67.97287 37761 ft 440 kts 234°
2026-05-05 02:59 45.17447 -68.04057 37757 ft 440 kts 234°
2026-05-05 03:00 45.13679 -68.10878 37757 ft 437 kts 234°
2026-05-05 03:00 45.09945 -68.17625 37770 ft 440 kts 234°
2026-05-05 03:01 45.06193 -68.24384 37752 ft 438 kts 234°
2026-05-05 03:01 45.02432 -68.31145 37765 ft 439 kts 234°
2026-05-05 03:02 44.98653 -68.37921 37759 ft 438 kts 234°
2026-05-05 03:02 44.94898 -68.44640 37768 ft 438 kts 235°
2026-05-05 03:03 44.91127 -68.51371 37764 ft 440 kts 235°
2026-05-05 03:03 44.87331 -68.58130 37765 ft 438 kts 235°
2026-05-05 03:04 44.83563 -68.64822 37776 ft 437 kts 234°
2026-05-05 03:04 44.79794 -68.71503 37781 ft 440 kts 234°
2026-05-05 03:05 44.75974 -68.78257 37771 ft 438 kts 234°
2026-05-05 03:05 44.72185 -68.84940 37781 ft 439 kts 234°
2026-05-05 03:06 44.68444 -68.91524 37773 ft 440 kts 234°
2026-05-05 03:06 44.64648 -68.98188 37772 ft 438 kts 234°
2026-05-05 03:07 44.60851 -69.04840 37785 ft 439 kts 234°
2026-05-05 03:07 44.57029 -69.11519 37776 ft 440 kts 234°
2026-05-05 03:08 44.53201 -69.18192 37780 ft 438 kts 234°
2026-05-05 03:08 44.49388 -69.24824 37767 ft 438 kts 234°
2026-05-05 03:09 44.45569 -69.31453 37763 ft 440 kts 234°
2026-05-05 03:09 44.41736 -69.38090 37785 ft 438 kts 234°
2026-05-05 03:10 44.37922 -69.44679 37778 ft 438 kts 234°
2026-05-05 03:10 44.34082 -69.51296 37777 ft 439 kts 234°
2026-05-05 03:11 44.30257 -69.57874 37764 ft 439 kts 234°
2026-05-05 03:11 44.26393 -69.64503 37780 ft 439 kts 234°
2026-05-05 03:12 44.22549 -69.71081 37790 ft 439 kts 234°
2026-05-05 03:12 44.18700 -69.77653 37784 ft 438 kts 234°
2026-05-05 03:13 44.14844 -69.84225 37774 ft 439 kts 234°
2026-05-05 03:13 44.10988 -69.90779 37786 ft 438 kts 234°
2026-05-05 03:14 44.07143 -69.97301 37779 ft 440 kts 234°
2026-05-05 03:14 44.03270 -70.03855 37777 ft 439 kts 234°
2026-05-05 03:15 43.99395 -70.10398 37782 ft 439 kts 234°
2026-05-05 03:15 43.95522 -70.16922 37782 ft 440 kts 234°
2026-05-05 03:16 43.91634 -70.23457 37786 ft 439 kts 234°
2026-05-05 03:16 43.87750 -70.29969 37787 ft 440 kts 234°
2026-05-05 03:17 43.83848 -70.36498 37787 ft 440 kts 234°
2026-05-05 03:17 43.79936 -70.43029 37783 ft 440 kts 234°
2026-05-05 03:18 43.76038 -70.49522 37787 ft 442 kts 234°
2026-05-05 03:18 43.72110 -70.56050 37781 ft 441 kts 234°
2026-05-05 03:19 43.66243 -70.65771 37783 ft 440 kts 234°
2026-05-05 03:19 43.62307 -70.72278 37798 ft 441 kts 234°
2026-05-05 03:20 43.58371 -70.78767 37794 ft 441 kts 234°
2026-05-05 03:20 43.54268 -70.85001 37802 ft 446 kts 225°
2026-05-05 03:21 43.51725 -70.87558 37827 ft 457 kts 217°
2026-05-05 03:21 43.48985 -70.89802 38078 ft 458 kts 215°
2026-05-05 03:21 43.46275 -70.91957 38534 ft 451 kts 214°
2026-05-05 03:21 43.43562 -70.94102 38984 ft 447 kts 214°
2026-05-05 03:22 43.40849 -70.96239 39228 ft 448 kts 214°
2026-05-05 03:22 43.38157 -70.98353 39372 ft 451 kts 214°
2026-05-05 03:22 43.35435 -71.00484 39563 ft 452 kts 214°
2026-05-05 03:22 43.32678 -71.02637 39787 ft 452 kts 214°
2026-05-05 03:23 43.27210 -71.06893 39809 ft 452 kts 214°
2026-05-05 03:23 43.21756 -71.11125 39807 ft 450 kts 214°
2026-05-05 03:24 43.16311 -71.15340 39811 ft 451 kts 214°
2026-05-05 03:24 43.10835 -71.19569 39816 ft 451 kts 214°
2026-05-05 03:25 43.05604 -71.24184 39817 ft 445 kts 225°
2026-05-05 03:25 43.01155 -71.29987 39814 ft 444 kts 228°
2026-05-05 03:26 42.96766 -71.35832 39812 ft 443 kts 228°
2026-05-05 03:26 42.92316 -71.41737 39810 ft 443 kts 228°
2026-05-05 03:27 42.87913 -71.47566 39818 ft 441 kts 228°
2026-05-05 03:27 42.83497 -71.53397 39818 ft 444 kts 228°
2026-05-05 03:28 42.79100 -71.59190 39816 ft 443 kts 228°
2026-05-05 03:28 42.74691 -71.64986 39822 ft 442 kts 228°
2026-05-05 03:29 42.70246 -71.70818 39843 ft 445 kts 227°
2026-05-05 03:29 42.65793 -71.76647 39843 ft 443 kts 227°
2026-05-05 03:30 42.61353 -71.82449 39847 ft 446 kts 227°
2026-05-05 03:30 42.56909 -71.88241 39849 ft 443 kts 227°
2026-05-05 03:31 42.52483 -71.93999 39861 ft 444 kts 227°
2026-05-05 03:31 42.48013 -71.99803 39856 ft 445 kts 227°
2026-05-05 03:32 42.43584 -72.05540 39860 ft 443 kts 227°
2026-05-05 03:32 42.39113 -72.11321 39859 ft 444 kts 227°
2026-05-05 03:33 42.34647 -72.17083 39854 ft 446 kts 228°
2026-05-05 03:33 42.30192 -72.22819 39859 ft 443 kts 227°
2026-05-05 03:34 42.25752 -72.28524 39856 ft 444 kts 227°
2026-05-05 03:34 42.21273 -72.34267 39855 ft 444 kts 228°
2026-05-05 03:35 42.16801 -72.39988 39857 ft 443 kts 228°
2026-05-05 03:35 42.12343 -72.45683 39857 ft 445 kts 227°
2026-05-05 03:36 42.07880 -72.51370 39861 ft 443 kts 228°
2026-05-05 03:36 42.03402 -72.57066 39861 ft 443 kts 227°
2026-05-05 03:37 41.98912 -72.62765 39859 ft 444 kts 228°
2026-05-05 03:37 41.94436 -72.68434 39876 ft 442 kts 227°
2026-05-05 03:38 41.90104 -72.74252 39876 ft 444 kts 230°
2026-05-05 03:38 41.85892 -72.80053 39884 ft 441 kts 230°
2026-05-05 03:39 41.83655 -72.83123 39887 ft 443 kts 230°